Regional Weather Roundup
Issued by NWS

Home | Current Version | Previous Version | Text Only | Print | Product List | Glossary Off
Versions: 1 2 3 4 5 6 7 8 9 10 11 12 13 14 15 16 17 18 19 20 21 22 23 24 25 26 27 28 29 30 31 32 33 34 35 36 37 38 39 40 41 42 43 44 45 46 47 48 49 50

000
ASUS43 KIND 251400
RWRIN

WEATHER ROUNDUP FOR INDIANA
NATIONAL WEATHER SERVICE INDIANAPOLIS IN
1000 AM EDT MON SEP 25 2017

NOTE: "FAIR" INDICATES FEW OR NO CLOUDS BELOW 12,000 FEET WITH NO
SIGNIFICANT WEATHER AND/OR OBSTRUCTIONS TO VISIBILITY.

* - STATION DOES NOT REPORT WEATHER SUCH AS PRECIPITATION OR FOG.

+ - STATION NOT QUALITY CONTROLLED BY THE NATIONAL WEATHER SERVICE.
    USE DATA WITH CAUTION...ESPECIALLY DEWPOINT AND RELATIVE
    HUMIDITY OBSERVATIONS.

INZ001>003-010>013-019-020-251500-
NORTHWEST INDIANA

CITY           SKY/WX    TMP DP  RH WIND       PRES   REMARKS
GARY /AIRPORT/ MOSUNNY   73  57  56 S5        30.05R
MONTICELLO +   MOSUNNY   71  58  65 CALM      30.05S

$$

LMZ046-743>745-251500-
SOUTHERN LAKE MICHIGAN

STATION/POSITION TIME  TEMP    WIND        PRES    WAVE
                       AIR SEA DIR/SP/G            HT
                 (UTC) (F)     (DEG/KT/KT) (MB)    (FT)
BURNS HARBOR     1340   75     170/  6/  9 1017.6R
MICHIGAN CITY    1330   73     140/ 10/ 11   N/A
5NW MICH CITY    1350   72 72  170/  6/  8   N/A     1

$$

INZ004-005-014>016-021>024-251500-
NORTH CENTRAL INDIANA

CITY           SKY/WX    TMP DP  RH WIND       PRES   REMARKS
ELKHART        SUNNY     72  63  73 CALM      30.07R
GOSHEN         SUNNY     72  62  71 CALM      30.07S
SOUTH BEND     SUNNY     73  60  63 SE3       30.07R

$$

INZ006>009-017-018-025>027-251500-
NORTHEAST INDIANA

CITY           SKY/WX    TMP DP  RH WIND       PRES   REMARKS
FORT WAYNE     PTSUNNY   73  61  65 SE3       30.08S
KENDALLVILLE + SUNNY     72  68  88 CALM      30.09R

$$

INZ028-029-035-036-043>045-051>053-251500-
WEST CENTRAL INDIANA

CITY           SKY/WX    TMP DP  RH WIND       PRES   REMARKS
LAFAYETTE      PTSUNNY   68  60  75 CALM      30.05R
TERRE HAUTE    MOSUNNY   75  60  59 S3        30.05R

$$

INZ030>032-037>040-046>048-054>057-064-065-251500-
CENTRAL INDIANA

CITY           SKY/WX    TMP DP  RH WIND       PRES   REMARKS
COLUMBUS       SUNNY     68  59  73 CALM      30.07R
GREENWOOD *+   SUNNY     77  64  63 SE3       30.07R
INDIANAPOLIS   MOSUNNY   74  60  61 CALM      30.06S
-EAGLE CREEK   SUNNY     75  59  57 CALM      30.06R
KOKOMO +       MOSUNNY   73  63  70 CALM      30.08R
MT COMFORT *+  SUNNY     72  61  68 CALM      30.07R
SHELBYVILLE    SUNNY     75  59  57 S5        30.06R

$$

INZ033-034-041-042-049-050-058-059-251500-
EAST CENTRAL INDIANA

CITY           SKY/WX    TMP DP  RH WIND       PRES   REMARKS
MUNCIE         SUNNY     77  58  51 CALM      30.08R
RICHMOND +     SUNNY     77  57  50 CALM      30.10R

$$

INZ060-061-067>069-081>083-085>088-251500-
SOUTHWEST INDIANA

CITY           SKY/WX    TMP DP  RH WIND       PRES   REMARKS
EVANSVILLE     MOSUNNY   76  69  79 CALM      30.05R
HUNTINGBURG +  SUNNY     74  68  81 CALM      30.05S

$$

INZ062-063-066-070>080-084-089>092-251500-
SOUTH CENTRAL AND SOUTHEAST INDIANA

CITY           SKY/WX    TMP DP  RH WIND       PRES   REMARKS
BLOOMINGTON    SUNNY     75  60  59 SE3       30.06R
MADISON *+     SUNNY     73  63  68 CALM      30.08S
SEYMOUR +      SUNNY     73  63  68 CALM      30.06S

$$





USA.gov is the U.S. government's official web portal to all federal, state and local government web resources and services.